Home > Weather > Chicago > Past weeks

Flag for USA Past Weather in Chicago, Illinois, USA — Yesterday and Last 2 Weeks

Now
72 °F

Overcast.


Feels Like: 73 °F
Forecast: 71 / 80 °F
Wind: 9 mph from East

Location: Chicago Midway Airport

Current Time: Aug 27, 2016 at 1:39:18 AM

Latest Report: Aug 27, 2016 at 12:53 AM


Visibility: 10 mi

Pressure: 30.09 "Hg

Humidity: 78%

Dew Point: 65 °F

Location of ChicagoLocation

Past Weather in Chicago — Graph

°F

Chicago Temperature Yesterday

Maximum temperature yesterday: 79 °F (at 12:53 PM)
Minimum temperature yesterday: 68 °F (at 4:53 AM)
Average temperature yesterday: 74 °F

High & Low Weather Summary for the Past Weeks

 TemperatureHumidityPressure
High87 °F (Aug 17, 1:53 PM)94% (Aug 12, 11:53 PM)30.20 "Hg (Aug 12, 11:53 PM)
Low60 °F (Aug 22, 3:53 AM)40% (Aug 21, 3:53 PM)29.57 "Hg (Aug 20, 2:53 PM)
Average76 °F70%29.95 "Hg
* Reported Aug 11 11:53 PM — Aug 26 11:53 PM, Chicago, Weather by CustomWeather, © 2016

Note: Actual official high and low records may vary slightly from our data, if they occured in-between our weather recording intervals... More about our weather records

Advertising

Chicago Weather History for the Previous 24 Hours

Scroll right to see more
 ConditionsComfort  
Time TempWeatherWind HumidityBarometerVisibility
11:53 PM
Fri, Aug 26
72 °FLight rain. Mostly cloudy.9 mph81%30.09 "Hg10 mi
10:53 PM74 °FLight rain. Mostly cloudy.12 mph74%30.09 "Hg9 mi
9:53 PM74 °FLight rain. Mostly cloudy.12 mph71%30.09 "Hg10 mi
8:53 PM74 °FMostly cloudy.9 mph71%30.11 "Hg10 mi
7:53 PM75 °FBroken clouds.10 mph64%30.10 "Hg10 mi
6:53 PM76 °FBroken clouds.8 mph62%30.08 "Hg10 mi
5:53 PM76 °FPartly sunny.8 mph62%30.09 "Hg10 mi
4:53 PM77 °FPartly sunny.10 mph58%30.10 "Hg10 mi
3:53 PM77 °FPartly sunny.10 mph58%30.09 "Hg10 mi
2:53 PM79 °FBroken clouds.6 mph56%30.09 "Hg10 mi
1:53 PM79 °FScattered clouds.7 mph56%30.12 "Hg10 mi
12:53 PM79 °FBroken clouds.9 mph56%30.12 "Hg10 mi
11:53 AM78 °FBroken clouds.7 mph58%30.14 "Hg10 mi
10:53 AM77 °FBroken clouds.6 mph60%30.15 "Hg10 mi
9:53 AM77 °FPartly sunny.6 mph64%30.15 "Hg10 mi
8:53 AM74 °FPartly sunny.6 mph67%30.14 "Hg10 mi
7:53 AM71 °FPartly sunny.6 mph71%30.13 "Hg10 mi
6:53 AM70 °FPartly cloudy.6 mph73%30.11 "Hg10 mi
5:53 AM69 °FPartly cloudy.3 mph76%30.10 "Hg10 mi
4:53 AM68 °FMostly cloudy.No wind78%30.09 "Hg10 mi
3:53 AM71 °FMostly cloudy.5 mph76%30.06 "Hg10 mi
2:53 AM69 °FMostly cloudy.No wind81%30.07 "Hg10 mi
1:53 AM70 °FMostly cloudy.3 mph79%30.07 "Hg10 mi
Weather by CustomWeather, © 2016

See weather overviewHow to use our weather pages